Regional Weather Roundup
Issued by NWS

Home | Current Version | Previous Version | Text Only | Print | Product List | Glossary On
Versions: 1 2 3 4 5 6 7 8 9 10 11 12 13 14 15 16 17 18 19 20 21 22 23 24 25 26 27 28 29 30 31 32 33 34 35 36 37 38 39 40 41 42 43 44 45 46 47 48 49 50
000
ASUS43 KDTX 220710
RWRMI
MICHIGAN HOURLY REGIONAL WEATHER ROUNDUP
NATIONAL WEATHER SERVICE DETROIT/PONTIAC MI
300 AM EDT FRI AUG 22 2014

NOTE: "FAIR" INDICATES FEW OR NO CLOUDS BELOW 12,000 FEET WITH NO
SIGNIFICANT WEATHER AND/OR OBSTRUCTION TO VISIBILITY.

MIZ047>049-052>055-059>063-066>070-074>076-081>083-220800-
SOUTHEAST LOWER MICHIGAN

CITY           SKY/WX    TMP DP  RH WIND       PRES   REMARKS
ADRIAN         MOCLDY    69  68  96 CALM      29.96F
ALMA           MOCLDY    65  64  93 E5        29.96F
ANN ARBOR      FOG       71  68  90 CALM      29.96F VSB 1
BAD AXE        FOG       56  56 100 CALM      29.99F VSB 1/2
CARO           CLOUDY    64  63  96 CALM      29.98F
DETROIT CITY   MOCLDY    71  67  87 CALM      29.97F
DETROIT        CLOUDY    72  70  93 N7        29.96F
FLINT          MOCLDY    70  64  81 E6        29.97F
GROSSE ILE     MOCLDY    73  70  88 NE3       29.95F FOG
HILLSDALE      CLOUDY    69  69 100 CALM      29.96F FOG
HOWELL         CLOUDY    69  69  98 CALM      29.96F FOG

CITY           SKY/WX    TMP DP  RH WIND       PRES   REMARKS
JACKSON        FOG       69  67  93 CALM      29.96F VSB 1/4
LAMBERTVILLE   MOCLDY    70  68  94 CALM      29.96F
LANSING        CLOUDY    70  68  93 E5        29.96F FOG
LAPEER         CLOUDY    65  64  94 CALM      29.98F
MASON          FOG       68  67  97 CALM      29.96F VSB 1/2
MONROE         MOCLDY    70  68  94 CALM      29.94F FOG
MT. CLEMENS    MOCLDY    68  63  86 N5        29.96F
PONTIAC        CLOUDY    68  64  87 NE3       29.97F
PORT HOPE        N/A     59  57  93 CALM      29.98F
PORT HURON     CLOUDY    66  64  94 CALM      29.98F
TRI CITIES     CLOUDY    69  65  86 CALM      29.98F
TROY           CLOUDY    68  65  90 CALM      29.99F
SAGINAW HB     CLOUDY    66  66 100 CALM      29.97F
$$
MIZ043>046-050>051-056>058-064>065-071>073-077>080-220800-
SOUTHWEST LOWER MICHIGAN

CITY           SKY/WX    TMP DP  RH WIND       PRES   REMARKS
BATTLE CREEK   CLOUDY    73  70  90 CALM      29.95F
BENTON HARBOR  PTCLDY    69  68  96 E3        29.92F
BIG RAPIDS     CLOUDY    67  67 100 W5        29.96F
COLDWATER      CLOUDY    70  69  97 CALM      29.95F FOG
FREMONT        CLOUDY    69  69  99 E5        29.94F FOG
HOLLAND        PTCLDY    72  70  93 E5        29.94F FOG
GRAND RAPIDS   CLOUDY    70  70 100 E3        29.94F FOG
IONIA          PTSUNNY   67  66  97 E5        29.94F FOG
KALAMAZOO      PTCLDY    71  69  93 CALM      29.95F FOG
LUDINGTON      CLOUDY    69  69  98 E3        29.94F FOG
MARSHALL       FOG       67  66  99 CALM      29.95F VSB 3/4
MOUNT PLEASANT CLOUDY    66  64  92 CALM      29.97F
MUSKEGON       MOCLDY    72  69  90 CALM      29.93F FOG
SOUTH HAVEN    CLEAR     69  69 100 CALM      29.92F FOG
$$
MIZ016>042-220800-
NORTHERN LOWER MICHIGAN

CITY           SKY/WX    TMP DP  RH WIND       PRES   REMARKS
ALPENA         CLOUDY    58  57  97 CALM      30.00S FOG
BEAVER ISLAND  RAIN      65  64  96 CALM      29.99S
BELLAIRE       CLOUDY    66  64  91 CALM      29.96F
CADILLAC       PTCLDY    65  65  97 E3        29.98F
CHARLEVOIX     CLOUDY    67  66  94 SE3       30.00F
FRANKFORT      CLOUDY    68  64  88 CALM      29.94F
GAYLORD        CLOUDY    64  62  93 SE3       30.00F
GRAYLING       CLOUDY    69  67  93 CALM      30.00F
HARBOR SPRINGS CLOUDY    66  64  91 NE3       29.98F
HOUGHTON LAKE  CLOUDY    65  63  93 CALM      29.99F
MANISTEE       CLOUDY    66  64  94 E3        29.95F
OSCODA         CLOUDY    57  57 100 CALM      29.99S
PELLSTON       MOCLDY    61  60  97 CALM      29.99F
ROGERS CITY    PTCLDY    61  61 100 NE3       30.01R
TRAVERSE CITY  CLOUDY    68  64  87 CALM      29.95F
$$
MIZ007>008-015-220800-
EASTERN UPPER MICHIGAN

CITY           SKY/WX    TMP DP  RH WIND       PRES   REMARKS
KINROSS        CLOUDY    59  57  94 CALM      30.00S VSB 1/2
MACKINAC ISLAN PTCLDY    60  60 100 E3        29.99F FOG
NEWBERRY       FOG       54  54 100 CALM      29.99S VSB 1/4
S. S. MARIE    PTCLDY    60  58  92 CALM      29.99S
MUNISING         N/A     65  61  87 CALM      29.96F
$$
MIZ004>006-011>014-085-220800-
CENTRAL UPPER MICHIGAN

CITY           SKY/WX    TMP DP  RH WIND       PRES   REMARKS
MANISTIQUE     CLOUDY    63  61  95 E5        29.97F
ESCANABA       CLOUDY    64  59  82 E3        29.96F
MENOMINEE      CLOUDY    66  63  88 E5        29.93F
SAWYER-GWINN   CLOUDY    65  60  85 S5        29.97F
$$
MIZ001>003-009>011-084-220800-
WESTERN UPPER MICHIGAN

CITY           SKY/WX    TMP DP  RH WIND       PRES   REMARKS
IRON MOUNTAIN  CLOUDY    63  61  93 SE8       29.95F
HOUGHTON       CLOUDY    58  56  93 E3        29.95S
COPPER HARBOR    N/A     53  51  93 CALM      29.95F
IRONWOOD       CLOUDY    66  66 100 E7        29.89F
$$

ABBREVIATIONS USED IN REMARKS
   TC - TEMPERATURE IN CELSIUS
  WCI - WIND CHILL INDEX
   HX - HEAT INDEX
  VSB - VISIBILITY




USA.gov is the U.S. government's official web portal to all federal, state and local government web resources and services.